Waterloo, IA

11:49 AM CDT on April 26, 2017 (GMT -0500)
Waterloo Municipal

Weather History for KALO - March, 2014

Change the Weather History Date:

Friday, March 28, 2014

  Actual Average Record
Temperature  
Mean Temperature 35 °F 41 °F  
Max Temperature 39 °F 52 °F 81 °F (1986)
Min Temperature 31 °F 30 °F 3 °F (1970)
Degree Days  
Heating Degree Days 30 24  
Month to date heating degree days 1076 836  
Since 1 July heating degree days 7484 6255  
Cooling Degree Days 0 0  
Month to date cooling degree days 0 0  
Year to date cooling degree days 0 0  
Moisture  
Dew Point 29 °F    
Average Humidity 81    
Maximum Humidity 92    
Minimum Humidity 70    
Precipitation  
Precipitation 0.00 in 0.08 in 0.85 in (1931)
Month to date precipitation 1.46 1.80  
Year to date precipitation 4.09 3.62  
Snow  
Snow 0.00 in 0.10 in 8.50 in (1931)
Month to date snowfall 5.8 4.2  
Since 1 July snowfall 57.6 33.1  
Snow Depth 0.00 in    
Sea Level Pressure  
Sea Level Pressure 30.00 in    
Wind  
Wind Speed 10 mph (NNW)    
Max Wind Speed 25 mph    
Max Gust Speed 31 mph    
Visibility 9 miles    
Events      
T = Trace of Precipitation, MM = Missing Value Source: NWS Daily Summary

Daily Weather History Graph

Daily Weather History Graph

Search for Another Location

Airport or City:

Trip Planner

Search our weather history database for the weather conditions in past years. The results will help you decide how hot, cold, wet, or windy it might be!

Date:

Astronomy

Mar. 28, 2014 Rise Set
Actual Time 6:58 AM CDT 7:31 PM CDT
Civil Twilight 6:30 AM CDT 7:59 PM CDT
Nautical Twilight 5:57 AM CDT 8:32 PM CDT
Astronomical Twilight 5:22 AM CDT 9:07 PM CDT
Moon 5:32 AM CDT (3/28) 5:26 PM CDT (3/28)
Length of Visible Light 13h 28m
Length of Day
12h 32m
Waning Crescent, 6% of the Moon is Illuminated
Mar 28
Waning Crescent
Mar 30
New
Apr 7
First Quarter
Apr 15
Full
Apr 22
Last Quarter

Hourly Weather History & Observations

Time (CDT) Temp. Windchill Dew Point Humidity Pressure Visibility Wind Dir Wind Speed Gust Speed Precip Events Conditions
12:54 AM 35.1 °F 23.8 °F 33.1 °F 92% 29.65 in 10.0 mi NW 20.7 mph 28.8 mph N/A   Overcast
1:44 AM 35.1 °F 23.8 °F 32.0 °F 89% 29.67 in 10.0 mi NNW 20.7 mph 28.8 mph N/A   Overcast
1:54 AM 35.1 °F 23.5 °F 32.0 °F 89% 29.70 in 10.0 mi NW 21.9 mph 29.9 mph N/A   Overcast
2:45 AM 34.0 °F 22.7 °F 30.9 °F 89% 29.73 in 7.0 mi NNW 19.6 mph 27.6 mph N/A   Overcast
2:54 AM 34.0 °F 22.7 °F 30.9 °F 89% 29.75 in 7.0 mi NNW 19.6 mph 25.3 mph N/A   Overcast
3:54 AM 33.1 °F 20.6 °F 30.0 °F 89% 29.80 in 8.0 mi NNW 23.0 mph 28.8 mph N/A   Overcast
4:44 AM 32.0 °F 20.5 °F 28.9 °F 88% 29.82 in 8.0 mi NNW 18.4 mph - N/A   Overcast
4:54 AM 32.0 °F 20.8 °F 28.0 °F 85% 29.86 in 8.0 mi NNW 17.3 mph 27.6 mph N/A   Overcast
5:54 AM 32.0 °F 20.1 °F 28.0 °F 85% 29.90 in 9.0 mi NNW 19.6 mph - N/A   Overcast
6:54 AM 30.9 °F 19.1 °F 27.0 °F 85% 29.92 in 10.0 mi North 18.4 mph - N/A   Overcast
7:54 AM 30.9 °F 19.8 °F 27.0 °F 85% 29.97 in 8.0 mi North 16.1 mph - N/A   Overcast
8:38 AM 30.9 °F 21.2 °F 27.0 °F 85% 29.99 in 8.0 mi North 12.7 mph - N/A   Overcast
8:54 AM 32.0 °F 22.5 °F 28.0 °F 85% 30.01 in 8.0 mi North 12.7 mph - N/A   Overcast
9:54 AM 32.0 °F 23.6 °F 28.0 °F 85% 30.05 in 8.0 mi North 10.4 mph - N/A   Overcast
10:40 AM 32.0 °F 23.0 °F 27.0 °F 82% 30.03 in 9.0 mi North 11.5 mph - N/A   Overcast
10:54 AM 32.0 °F 23.0 °F 27.0 °F 82% 30.06 in 9.0 mi NNW 11.5 mph - N/A   Overcast
11:54 AM 33.1 °F 25.5 °F 27.0 °F 78% 30.10 in 9.0 mi NNW 9.2 mph - N/A   Overcast
12:54 PM 34.0 °F 25.5 °F 27.0 °F 75% 30.10 in 10.0 mi NNW 11.5 mph - N/A   Overcast
1:54 PM 36.0 °F 29.6 °F 28.0 °F 73% 30.10 in 10.0 mi North 8.1 mph - N/A   Overcast
2:54 PM 37.0 °F 31.6 °F 28.0 °F 70% 30.12 in 10.0 mi North 6.9 mph - N/A   Overcast
3:54 PM 37.9 °F 34.4 °F 28.0 °F 68% 30.12 in 10.0 mi WNW 4.6 mph - N/A   Overcast
4:54 PM 37.9 °F - 28.9 °F 70% 30.14 in 10.0 mi Calm Calm - N/A   Overcast
5:54 PM 37.9 °F 35.5 °F 28.0 °F 68% 30.14 in 10.0 mi WNW 3.5 mph - N/A   Overcast
6:54 PM 37.0 °F 31.6 °F 30.0 °F 76% 30.16 in 10.0 mi North 6.9 mph - N/A   Overcast
7:54 PM 36.0 °F 32.1 °F 30.0 °F 79% 30.16 in 10.0 mi NE 4.6 mph - N/A   Overcast
8:07 PM 35.1 °F 32.2 °F 30.0 °F 82% 30.14 in 10.0 mi NE 3.5 mph - N/A   Overcast
8:18 PM 35.1 °F 30.1 °F 30.0 °F 82% 30.14 in 10.0 mi ENE 5.8 mph - N/A   Overcast
8:54 PM 35.1 °F 31.0 °F 28.9 °F 78% 30.18 in 10.0 mi NE 4.6 mph - N/A   Overcast
9:54 PM 33.1 °F 28.7 °F 28.9 °F 85% 30.19 in 10.0 mi NNW 4.6 mph - N/A   Overcast
10:54 PM 34.0 °F 31.0 °F 28.9 °F 82% 30.20 in 10.0 mi WNW 3.5 mph - N/A   Overcast
11:54 PM 33.1 °F 26.9 °F 28.9 °F 85% 30.22 in 10.0 mi WNW 6.9 mph - N/A   Overcast